Dades meteomassalio
Diari Summary for Marc 11, 2017 Units:  Metric    English   Both
« Previous Day
Next Day »
Diari Semanal Mensual Anual Personalitzat
  Maxima: Minima: Mijana:
Temperatura: 26.1 °C 5.4 °C 14.6 °C
Rosada: 9.8 °C 2.7 °C 5.3 °C
Humitat: 84 % 27 % 59 %
Velocitat del vent: 13.0 km/h 0.0 km/h 1.8 km/h
Racha vent: 13.0 km/h - -
Vent:- - SE
Pressio: 1019.2 hPa 1013.4 hPa -
Pluja: 0.0 mm    
Historical Graphs
 
 
Tabular Data for Marc 11, 2017
Time Temperature Dew Point Pressure Wind Wind Speed Wind Gust Humidity Rainfall Rate (Hourly) solar Conditions
00:02 10.0 °C 4.3 °C 1019.2 hPa Calm     68 % 0.0 mm 0.0 W/m2 CLR
00:07 9.8 °C 4.3 °C 1019.2 hPa Calm     69 % 0.0 mm 0.0 W/m2 CLR
00:12 9.7 °C 4.4 °C 1019.2 hPa Calm     70 % 0.0 mm 0.0 W/m2 CLR
00:17 9.5 °C 4.5 °C 1019.2 hPa Calm     71 % 0.0 mm 0.0 W/m2 CLR
00:22 9.3 °C 4.3 °C 1019.2 hPa Calm     71 % 0.0 mm 0.0 W/m2 CLR
00:27 9.2 °C 4.2 °C 1019.2 hPa Calm     71 % 0.0 mm 0.0 W/m2 CLR
00:32 9.1 °C 4.3 °C 1019.2 hPa Calm     72 % 0.0 mm 0.0 W/m2 CLR
00:37 9.1 °C 4.3 °C 1019.2 hPa Calm     72 % 0.0 mm 0.0 W/m2 CLR
00:42 9.1 °C 4.1 °C 1019.2 hPa Calm     71 % 0.0 mm 0.0 W/m2 CLR
00:47 9.1 °C 4.1 °C 1019.2 hPa Calm     71 % 0.0 mm 0.0 W/m2 CLR
00:52 9.0 °C 4.0 °C 1018.8 hPa Calm     71 % 0.0 mm 0.0 W/m2 CLR
00:57 9.0 °C 4.2 °C 1019.2 hPa Calm     72 % 0.0 mm 0.0 W/m2 CLR
01:02 8.9 °C 4.1 °C 1018.8 hPa Calm     72 % 0.0 mm 0.0 W/m2 CLR
01:07 8.8 °C 4.0 °C 1018.8 hPa Calm     72 % 0.0 mm 0.0 W/m2 CLR
01:12 8.7 °C 4.1 °C 1019.2 hPa Calm     73 % 0.0 mm 0.0 W/m2 CLR
01:17 8.6 °C 4.2 °C 1018.8 hPa Calm     74 % 0.0 mm 0.0 W/m2 CLR
01:22 8.4 °C 4.0 °C 1018.8 hPa Calm     74 % 0.0 mm 0.0 W/m2 CLR
01:27 8.2 °C 4.1 °C 1018.8 hPa Calm     75 % 0.0 mm 0.0 W/m2 CLR
01:33 8.2 °C 4.0 °C 1018.8 hPa Calm     75 % 0.0 mm 0.0 W/m2 CLR
01:38 8.1 °C 4.1 °C 1019.2 hPa Calm     76 % 0.0 mm 0.0 W/m2 CLR
01:43 7.9 °C 3.9 °C 1019.2 hPa Calm     76 % 0.0 mm 0.0 W/m2 CLR
01:48 7.9 °C 3.8 °C 1019.2 hPa Calm     75 % 0.0 mm 0.0 W/m2 CLR
01:53 7.9 °C 3.8 °C 1019.2 hPa Calm     75 % 0.0 mm 0.0 W/m2 CLR
01:58 7.9 °C 3.9 °C 1019.2 hPa Calm     76 % 0.0 mm 0.0 W/m2 CLR
01:59 7.9 °C 3.9 °C 1019.2 hPa Calm     76 % 0.0 mm 0.0 W/m2 CLR
02:04 8.0 °C 3.8 °C 1018.8 hPa Calm     75 % 0.0 mm 0.0 W/m2 CLR
02:09 8.1 °C 3.8 °C 1018.8 hPa Calm     74 % 0.0 mm 0.0 W/m2 CLR
02:14 8.1 °C 3.8 °C 1018.8 hPa Calm     74 % 0.0 mm 0.0 W/m2 CLR
02:19 8.1 °C 3.8 °C 1018.8 hPa Calm     74 % 0.0 mm 0.0 W/m2 CLR
02:24 8.0 °C 3.8 °C 1018.8 hPa Calm     75 % 0.0 mm 0.0 W/m2 CLR
02:29 7.8 °C 3.9 °C 1018.8 hPa Calm     76 % 0.0 mm 0.0 W/m2 CLR
02:34 7.7 °C 3.8 °C 1018.8 hPa Calm     76 % 0.0 mm 0.0 W/m2 CLR
02:39 7.6 °C 3.7 °C 1018.8 hPa Calm     76 % 0.0 mm 0.0 W/m2 CLR
02:44 7.5 °C 3.7 °C 1018.8 hPa Calm     77 % 0.0 mm 0.0 W/m2 CLR
02:49 7.4 °C 3.8 °C 1018.8 hPa Calm     78 % 0.0 mm 0.0 W/m2 CLR
02:54 7.3 °C 3.7 °C 1018.8 hPa Calm     78 % 0.0 mm 0.0 W/m2 CLR
02:59 7.3 °C 3.7 °C 1018.8 hPa Calm     78 % 0.0 mm 0.0 W/m2 CLR
03:04 7.3 °C 3.7 °C 1018.8 hPa Calm     78 % 0.0 mm 0.0 W/m2 CLR
03:09 7.1 °C 3.6 °C 1018.8 hPa Calm     78 % 0.0 mm 0.0 W/m2 CLR
03:14 7.0 °C 3.6 °C 1018.8 hPa Calm     79 % 0.0 mm 0.0 W/m2 CLR
03:19 6.9 °C 3.6 °C 1018.5 hPa Calm     79 % 0.0 mm 0.0 W/m2 CLR
03:24 6.9 °C 3.5 °C 1018.5 hPa Calm     79 % 0.0 mm 0.0 W/m2 CLR
03:29 6.9 °C 3.6 °C 1018.5 hPa Calm     79 % 0.0 mm 0.0 W/m2 CLR
03:34 6.9 °C 3.5 °C 1018.5 hPa Calm     79 % 0.0 mm 0.0 W/m2 CLR
03:39 6.8 °C 3.4 °C 1018.5 hPa Calm     79 % 0.0 mm 0.0 W/m2 CLR
03:44 6.7 °C 3.5 °C 1018.5 hPa Calm     80 % 0.0 mm 0.0 W/m2 CLR
03:49 6.7 °C 3.5 °C 1018.5 hPa Calm     80 % 0.0 mm 0.0 W/m2 CLR
03:54 6.7 °C 3.4 °C 1018.5 hPa Calm     80 % 0.0 mm 0.0 W/m2 CLR
03:59 6.6 °C 3.3 °C 1018.5 hPa Calm     80 % 0.0 mm 0.0 W/m2 CLR
04:04 6.4 °C 3.2 °C 1018.5 hPa Calm     80 % 0.0 mm 0.0 W/m2 CLR
04:09 6.6 °C 3.2 °C 1018.5 hPa Calm     79 % 0.0 mm 0.0 W/m2 CLR
04:14 6.9 °C 3.3 °C 1018.5 hPa Calm     78 % 0.0 mm 0.0 W/m2 CLR
04:19 7.3 °C 3.4 °C 1018.5 hPa Calm     76 % 0.0 mm 0.0 W/m2 CLR
04:24 7.6 °C 3.4 °C 1018.5 hPa Calm     75 % 0.0 mm 0.0 W/m2 CLR
04:29 7.6 °C 3.4 °C 1018.5 hPa Calm     75 % 0.0 mm 0.0 W/m2 CLR
04:34 7.5 °C 3.3 °C 1018.5 hPa Calm     75 % 0.0 mm 0.0 W/m2 CLR
04:39 7.3 °C 3.3 °C 1018.5 hPa Calm     76 % 0.0 mm 0.0 W/m2 CLR
04:40 7.2 °C 3.3 °C 1018.5 hPa Calm     76 % 0.0 mm 0.0 W/m2 CLR
04:45 7.1 °C 3.2 °C 1018.5 hPa Calm     76 % 0.0 mm 0.0 W/m2 CLR
04:50 7.0 °C 3.1 °C 1018.5 hPa Calm     76 % 0.0 mm 0.0 W/m2 CLR
04:55 7.1 °C 3.1 °C 1018.5 hPa Calm     76 % 0.0 mm 0.0 W/m2 CLR
05:00 7.1 °C 3.2 °C 1018.5 hPa Calm     76 % 0.0 mm 0.0 W/m2 CLR
05:05 7.1 °C 3.3 °C 1018.5 hPa Calm     77 % 0.0 mm 0.0 W/m2 CLR
05:10 7.1 °C 3.1 °C 1018.5 hPa Calm     76 % 0.0 mm 0.0 W/m2 CLR
05:15 6.9 °C 3.2 °C 1018.5 hPa Calm     77 % 0.0 mm 0.0 W/m2 CLR
05:20 6.8 °C 3.0 °C 1018.5 hPa Calm     77 % 0.0 mm 0.0 W/m2 CLR
05:26 6.6 °C 3.1 °C 1018.5 hPa Calm     78 % 0.0 mm 0.0 W/m2 CLR
05:31 6.6 °C 3.0 °C 1018.5 hPa Calm     78 % 0.0 mm 0.0 W/m2 CLR
05:36 6.5 °C 3.1 °C 1018.8 hPa Calm     79 % 0.0 mm 0.0 W/m2 CLR
05:41 6.3 °C 2.9 °C 1018.8 hPa Calm     79 % 0.0 mm 0.0 W/m2 CLR
05:46 6.3 °C 3.1 °C 1018.8 hPa Calm     80 % 0.0 mm 0.0 W/m2 CLR
05:51 6.2 °C 2.9 °C 1018.8 hPa Calm     80 % 0.0 mm 0.0 W/m2 CLR
05:56 6.1 °C 2.9 °C 1018.8 hPa Calm     80 % 0.0 mm 0.0 W/m2 CLR
06:01 6.1 °C 3.1 °C 1018.8 hPa Calm     81 % 0.0 mm 0.0 W/m2 CLR
06:06 6.1 °C 2.9 °C 1018.8 hPa Calm     80 % 0.0 mm 0.0 W/m2 CLR
06:11 5.9 °C 2.9 °C 1018.8 hPa Calm     81 % 0.0 mm 0.0 W/m2 CLR
06:16 5.9 °C 2.9 °C 1018.8 hPa Calm     81 % 0.0 mm 0.0 W/m2 CLR
06:21 6.0 °C 3.0 °C 1018.8 hPa Calm     81 % 0.0 mm 0.0 W/m2 CLR
06:26 6.2 °C 2.9 °C 1018.8 hPa Calm     80 % 0.0 mm 0.0 W/m2 CLR
06:31 6.1 °C 2.9 °C 1018.8 hPa Calm     80 % 0.0 mm 0.0 W/m2 CLR
06:36 6.1 °C 2.9 °C 1019.2 hPa Calm     80 % 0.0 mm 0.0 W/m2 CLR
06:41 5.9 °C 2.7 °C 1019.2 hPa Calm     80 % 0.0 mm 0.0 W/m2 CLR
06:46 5.7 °C 2.7 °C 1019.2 hPa Calm     81 % 0.0 mm 0.0 W/m2 CLR
06:51 5.6 °C 2.7 °C 1019.2 hPa Calm     82 % 0.0 mm 0.0 W/m2 CLR
06:56 5.5 °C 2.7 °C 1019.2 hPa Calm     82 % 0.0 mm 0.0 W/m2 CLR
07:01 5.5 °C 2.8 °C 1019.2 hPa Calm     83 % 0.0 mm 0.0 W/m2 CLR
07:06 5.5 °C 2.8 °C 1019.2 hPa Calm     83 % 0.0 mm 0.0 W/m2 CLR
07:11 5.6 °C 2.9 °C 1019.2 hPa Calm     83 % 0.0 mm 0.0 W/m2 OVC
07:16 5.5 °C 2.8 °C 1019.2 hPa Calm     83 % 0.0 mm 5.0 W/m2 OVC
07:21 5.5 °C 2.8 °C 1019.2 hPa Calm     83 % 0.0 mm 9.0 W/m2 OVC
07:26 5.4 °C 2.8 °C 1019.2 hPa Calm     83 % 0.0 mm 12.0 W/m2 BKN
07:31 5.4 °C 2.8 °C 1019.2 hPa Calm     83 % 0.0 mm 16.0 W/m2 BKN
07:36 5.4 °C 2.7 °C 1019.2 hPa Calm     83 % 0.0 mm 21.0 W/m2 BKN
07:41 5.4 °C 2.7 °C 1019.2 hPa Calm     83 % 0.0 mm 26.0 W/m2 BKN
07:46 5.5 °C 3.0 °C 1019.2 hPa Calm     84 % 0.0 mm 30.0 W/m2 BKN
07:51 5.7 °C 3.1 °C 1019.2 hPa Calm     83 % 0.0 mm 39.0 W/m2 BKN
07:56 6.0 °C 3.3 °C 1019.2 hPa Calm     83 % 0.0 mm 49.0 W/m2 SCT
08:01 6.3 °C 3.4 °C 1019.2 hPa Calm     82 % 0.0 mm 63.0 W/m2 SCT
08:06 6.6 °C 3.7 °C 1019.2 hPa Calm     82 % 0.0 mm 76.0 W/m2 FEW
08:11 6.9 °C 3.7 °C 1019.2 hPa Calm     80 % 0.0 mm 88.0 W/m2 CLR
08:16 7.2 °C 3.8 °C 1019.2 hPa Calm     79 % 0.0 mm 81.0 W/m2 FEW
08:21 7.3 °C 3.7 °C 1019.2 hPa Calm     78 % 0.0 mm 76.0 W/m2 FEW
08:26 7.7 °C 4.1 °C 1019.2 hPa Calm     78 % 0.0 mm 70.0 W/m2 FEW
08:31 8.0 °C 4.2 °C 1019.2 hPa Calm     77 % 0.0 mm 111.0 W/m2 FEW
08:36 8.3 °C 4.3 °C 1019.2 hPa Calm     76 % 0.0 mm 176.0 W/m2 CLR
08:41 8.6 °C 4.4 °C 1019.2 hPa Calm     75 % 0.0 mm 204.0 W/m2 CLR
08:46 8.7 °C 4.3 °C 1019.2 hPa Calm     74 % 0.0 mm 149.0 W/m2 CLR
08:51 9.1 °C 4.4 °C 1019.2 hPa Calm     73 % 0.0 mm 216.0 W/m2 CLR
08:56 9.6 °C 5.0 °C 1019.2 hPa Calm     73 % 0.0 mm 257.0 W/m2 CLR
09:01 10.2 °C 5.2 °C 1019.2 hPa Calm     71 % 0.0 mm 269.0 W/m2 CLR
09:06 10.8 °C 5.3 °C 1019.2 hPa Calm     69 % 0.0 mm 255.0 W/m2 CLR
09:11 11.3 °C 5.4 °C 1019.2 hPa Calm     67 % 0.0 mm 237.0 W/m2 CLR
09:16 11.7 °C 5.6 °C 1018.8 hPa Calm     66 % 0.0 mm 288.0 W/m2 CLR
09:21 12.2 °C 5.8 °C 1018.8 hPa Calm     65 % 0.0 mm 329.0 W/m2 CLR
09:26 12.8 °C 6.2 °C 1018.8 hPa Calm     64 % 0.0 mm 311.0 W/m2 CLR
09:31 13.4 °C 6.1 °C 1018.8 hPa Calm     61 % 0.0 mm 309.0 W/m2 CLR
09:36 14.2 °C 7.2 °C 1018.5 hPa Calm     63 % 0.0 mm 367.0 W/m2 CLR
09:41 14.7 °C 7.1 °C 1018.5 hPa Calm     60 % 0.0 mm 385.0 W/m2 CLR
09:46 15.1 °C 7.1 °C 1018.5 hPa Calm     59 % 0.0 mm 401.0 W/m2 CLR
09:51 15.4 °C 6.7 °C 1018.5 hPa Calm     56 % 0.0 mm 413.0 W/m2 CLR
09:56 15.8 °C 7.3 °C 1018.5 hPa Calm     57 % 0.0 mm 427.0 W/m2 CLR
10:01 16.2 °C 7.2 °C 1018.2 hPa Calm     55 % 0.0 mm 439.0 W/m2 CLR
10:06 16.4 °C 6.8 °C 1018.2 hPa Calm     53 % 0.0 mm 457.0 W/m2 CLR
10:11 16.7 °C 7.1 °C 1018.2 hPa Calm     53 % 0.0 mm 469.0 W/m2 CLR
10:16 17.2 °C 6.9 °C 1018.2 hPa Calm     51 % 0.0 mm 482.0 W/m2 CLR
10:21 17.6 °C 7.0 °C 1018.2 hPa Calm     50 % 0.0 mm 496.0 W/m2 CLR
10:26 18.0 °C 7.1 °C 1018.2 hPa Calm     49 % 0.0 mm 510.0 W/m2 CLR
10:31 18.4 °C 6.9 °C 1017.8 hPa Calm     47 % 0.0 mm 522.0 W/m2 CLR
10:36 18.9 °C 7.0 °C 1017.8 hPa Calm     46 % 0.0 mm 534.0 W/m2 CLR
10:41 19.3 °C 7.4 °C 1017.8 hPa Calm     46 % 0.0 mm 548.0 W/m2 CLR
10:46 19.6 °C 7.9 °C 1017.8 hPa Calm     47 % 0.0 mm 561.0 W/m2 CLR
10:51 19.8 °C 7.2 °C 1017.8 hPa Calm     44 % 0.0 mm 573.0 W/m2 CLR
10:56 20.1 °C 7.7 °C 1017.8 hPa Calm     45 % 0.0 mm 585.0 W/m2 CLR
11:01 20.4 °C 7.7 °C 1017.8 hPa Calm     44 % 0.0 mm 599.0 W/m2 CLR
11:06 20.7 °C 8.0 °C 1017.8 hPa NE 1.9 km/h   44 % 0.0 mm 612.0 W/m2 CLR
11:12 20.9 °C 7.5 °C 1017.8 hPa East 7.4 km/h 7.4 km/h 42 % 0.0 mm 615.0 W/m2 CLR
11:17 20.8 °C 7.8 °C 1017.8 hPa ENE 9.3 km/h 9.3 km/h 43 % 0.0 mm 613.0 W/m2 CLR
11:22 20.8 °C 7.7 °C 1017.8 hPa ENE 9.3 km/h 9.3 km/h 43 % 0.0 mm 635.0 W/m2 CLR
11:27 20.7 °C 8.0 °C 1017.8 hPa ENE 11.1 km/h 11.1 km/h 44 % 0.0 mm 640.0 W/m2 CLR
11:32 20.5 °C 8.5 °C 1017.8 hPa NE 11.1 km/h 11.1 km/h 46 % 0.0 mm 649.0 W/m2 CLR
11:37 20.5 °C 9.1 °C 1017.5 hPa NE 11.1 km/h 11.1 km/h 48 % 0.0 mm 656.0 W/m2 CLR
11:42 20.6 °C 8.9 °C 1017.5 hPa NE 9.3 km/h 9.3 km/h 47 % 0.0 mm 670.0 W/m2 CLR
11:47 20.7 °C 9.3 °C 1017.5 hPa ENE 9.3 km/h 9.3 km/h 48 % 0.0 mm 684.0 W/m2 CLR
11:52 20.8 °C 9.1 °C 1017.5 hPa ENE 11.1 km/h 11.1 km/h 47 % 0.0 mm 714.0 W/m2 CLR
11:57 21.1 °C 9.6 °C 1017.5 hPa NE 9.3 km/h 9.3 km/h 48 % 0.0 mm 617.0 W/m2 CLR
12:02 21.3 °C 9.8 °C 1017.5 hPa ENE 11.1 km/h 11.1 km/h 48 % 0.0 mm 752.0 W/m2 CLR
12:07 21.3 °C 8.8 °C 1017.5 hPa East 7.4 km/h 7.4 km/h 45 % 0.0 mm 701.0 W/m2 CLR
12:12 21.3 °C 8.9 °C 1017.5 hPa ESE 5.6 km/h 5.6 km/h 45 % 0.0 mm 596.0 W/m2 CLR
12:17 21.2 °C 8.8 °C 1017.5 hPa Calm     45 % 0.0 mm 403.0 W/m2 CLR
12:22 21.1 °C 8.4 °C 1017.2 hPa ENE 11.1 km/h 11.1 km/h 44 % 0.0 mm 786.0 W/m2 CLR
12:27 21.4 °C 8.6 °C 1017.2 hPa ESE 9.3 km/h 9.3 km/h 44 % 0.0 mm 668.0 W/m2 CLR
12:32 21.2 °C 9.1 °C 1017.2 hPa East 5.6 km/h 5.6 km/h 46 % 0.0 mm 772.0 W/m2 CLR
12:37 21.3 °C 8.6 °C 1017.2 hPa ENE 13.0 km/h 13.0 km/h 44 % 0.0 mm 793.0 W/m2 CLR
12:42 21.4 °C 8.6 °C 1016.8 hPa ENE 8.0 km/h 8.0 km/h 44 % 0.0 mm 754.0 W/m2 CLR
12:47 21.5 °C 8.4 °C 1016.8 hPa ENE 5.6 km/h 5.6 km/h 43 % 0.0 mm 533.0 W/m2 CLR
12:52 21.7 °C 8.2 °C 1016.8 hPa East 6.4 km/h 6.4 km/h 42 % 0.0 mm 752.0 W/m2 CLR
12:57 22.2 °C 8.3 °C 1016.8 hPa ENE 5.6 km/h 5.6 km/h 41 % 0.0 mm 745.0 W/m2 CLR
13:02 22.6 °C 8.3 °C 1016.8 hPa NE 5.6 km/h 5.6 km/h 40 % 0.0 mm 747.0 W/m2 CLR
13:07 22.8 °C 8.4 °C 1016.8 hPa Calm     40 % 0.0 mm 752.0 W/m2 CLR
13:12 23.1 °C 8.8 °C 1016.8 hPa North 7.4 km/h 7.4 km/h 40 % 0.0 mm 768.0 W/m2 CLR
13:13 23.1 °C 8.8 °C 1016.8 hPa NNW 7.4 km/h 7.4 km/h 40 % 0.0 mm 773.0 W/m2 CLR
13:18 23.3 °C 8.2 °C 1016.8 hPa NW 7.4 km/h 7.4 km/h 38 % 0.0 mm 754.0 W/m2 CLR
13:23 23.2 °C 8.1 °C 1016.5 hPa NW 7.4 km/h 7.4 km/h 38 % 0.0 mm 721.0 W/m2 CLR
13:28 23.2 °C 8.1 °C 1016.5 hPa NW 5.6 km/h 5.6 km/h 38 % 0.0 mm 462.0 W/m2 CLR
13:33 23.3 °C 7.8 °C 1016.5 hPa Calm     37 % 0.0 mm 577.0 W/m2 CLR
13:38 23.4 °C 7.9 °C 1016.1 hPa ENE 7.4 km/h   37 % 0.0 mm 613.0 W/m2 CLR
13:43 23.6 °C 7.7 °C 1016.1 hPa Calm     36 % 0.0 mm 680.0 W/m2 CLR
13:48 23.8 °C 6.6 °C 1016.1 hPa Calm   0.6 km/h 33 % 0.0 mm 731.0 W/m2 CLR
13:53 24.1 °C 7.3 °C 1015.8 hPa Calm     34 % 0.0 mm 722.0 W/m2 CLR
13:58 24.2 °C 6.9 °C 1015.8 hPa Calm     33 % 0.0 mm 715.0 W/m2 CLR
14:03 24.7 °C 7.8 °C 1015.8 hPa Calm     34 % 0.0 mm 712.0 W/m2 CLR
14:08 25.1 °C 7.7 °C 1015.5 hPa NNE 5.6 km/h 5.6 km/h 33 % 0.0 mm 707.0 W/m2 CLR
14:13 25.1 °C 7.2 °C 1015.5 hPa NNE 7.4 km/h 7.4 km/h 32 % 0.0 mm 700.0 W/m2 CLR
14:18 24.9 °C 6.6 °C 1015.5 hPa ENE 4.8 km/h 4.8 km/h 31 % 0.0 mm 694.0 W/m2 CLR
14:23 25.0 °C 7.2 °C 1015.5 hPa Calm   0.3 km/h 32 % 0.0 mm 691.0 W/m2 CLR
14:28 25.1 °C 6.7 °C 1015.5 hPa Calm     31 % 0.0 mm 686.0 W/m2 CLR
14:33 25.2 °C 6.8 °C 1015.5 hPa North 9.7 km/h 9.7 km/h 31 % 0.0 mm 677.0 W/m2 CLR
14:38 24.9 °C 7.5 °C 1015.1 hPa NNE 3.7 km/h 3.7 km/h 33 % 0.0 mm 670.0 W/m2 CLR
14:43 24.9 °C 7.1 °C 1015.1 hPa NNW 3.7 km/h 3.7 km/h 32 % 0.0 mm 666.0 W/m2 CLR
14:48 24.8 °C 6.6 °C 1015.1 hPa North 11.1 km/h 11.1 km/h 31 % 0.0 mm 657.0 W/m2 CLR
14:53 24.8 °C 6.1 °C 1015.1 hPa Calm     30 % 0.0 mm 649.0 W/m2 CLR
14:58 25.0 °C 7.2 °C 1015.1 hPa North 8.0 km/h 8.0 km/h 32 % 0.0 mm 640.0 W/m2 CLR
15:03 25.1 °C 6.3 °C 1015.1 hPa North 8.0 km/h 8.0 km/h 30 % 0.0 mm 631.0 W/m2 CLR
15:08 25.0 °C 6.2 °C 1015.1 hPa North 8.0 km/h 8.0 km/h 30 % 0.0 mm 617.0 W/m2 CLR
15:13 25.1 °C 6.3 °C 1015.1 hPa NE 3.7 km/h   30 % 0.0 mm 608.0 W/m2 CLR
15:18 25.3 °C 5.4 °C 1014.8 hPa North 3.7 km/h 3.7 km/h 28 % 0.0 mm 591.0 W/m2 CLR
15:23 25.4 °C 5.1 °C 1014.8 hPa Calm     27 % 0.0 mm 608.0 W/m2 CLR
15:28 25.6 °C 5.7 °C 1014.8 hPa North 9.3 km/h 9.3 km/h 28 % 0.0 mm 573.0 W/m2 CLR
15:33 25.4 °C 6.1 °C 1014.8 hPa North 9.3 km/h 9.3 km/h 29 % 0.0 mm 345.0 W/m2 CLR
15:38 25.3 °C 5.4 °C 1014.8 hPa North 6.4 km/h 6.4 km/h 28 % 0.0 mm 548.0 W/m2 CLR
15:43 25.3 °C 5.4 °C 1014.8 hPa North 3.7 km/h 3.7 km/h 28 % 0.0 mm 554.0 W/m2 CLR
15:48 25.4 °C 6.6 °C 1014.8 hPa Calm     30 % 0.0 mm 508.0 W/m2 CLR
15:53 25.6 °C 6.7 °C 1014.4 hPa NNE 5.6 km/h 5.6 km/h 30 % 0.0 mm 422.0 W/m2 CLR
15:58 25.5 °C 5.7 °C 1014.4 hPa Calm     28 % 0.0 mm 441.0 W/m2 CLR
16:03 25.5 °C 5.7 °C 1014.4 hPa NE 7.4 km/h 7.4 km/h 28 % 0.0 mm 522.0 W/m2 CLR
16:08 25.6 °C 5.7 °C 1014.4 hPa East 4.8 km/h 4.8 km/h 28 % 0.0 mm 473.0 W/m2 CLR
16:13 25.6 °C 5.2 °C 1014.4 hPa ENE 3.7 km/h   27 % 0.0 mm 443.0 W/m2 CLR
16:18 25.4 °C 5.0 °C 1014.1 hPa Calm     27 % 0.0 mm 475.0 W/m2 CLR
16:23 25.6 °C 5.7 °C 1014.1 hPa NE 1.9 km/h   28 % 0.0 mm 466.0 W/m2 CLR
16:28 25.7 °C 5.8 °C 1014.1 hPa Calm     28 % 0.0 mm 438.0 W/m2 CLR
16:33 25.6 °C 5.2 °C 1014.1 hPa ENE 5.6 km/h 5.6 km/h 27 % 0.0 mm 417.0 W/m2 CLR
16:38 25.6 °C 5.7 °C 1013.8 hPa ENE 5.6 km/h 5.6 km/h 28 % 0.0 mm 394.0 W/m2 CLR
16:43 25.7 °C 5.8 °C 1013.8 hPa NE 5.6 km/h 5.6 km/h 28 % 0.0 mm 369.0 W/m2 CLR
16:48 25.6 °C 6.2 °C 1013.8 hPa NNE 7.4 km/h 7.4 km/h 29 % 0.0 mm 364.0 W/m2 CLR
16:53 25.5 °C 6.7 °C 1013.8 hPa NNE 3.7 km/h 3.7 km/h 30 % 0.0 mm 350.0 W/m2 CLR
16:58 25.6 °C 7.2 °C 1013.8 hPa Calm     31 % 0.0 mm 336.0 W/m2 CLR
17:03 25.7 °C 6.8 °C 1013.8 hPa Calm     30 % 0.0 mm 318.0 W/m2 CLR
17:08 25.8 °C 6.4 °C 1013.8 hPa North 1.9 km/h   29 % 0.0 mm 301.0 W/m2 CLR
17:13 25.8 °C 6.4 °C 1013.4 hPa Calm     29 % 0.0 mm 287.0 W/m2 CLR
17:18 25.9 °C 6.0 °C 1013.4 hPa Calm     28 % 0.0 mm 267.0 W/m2 CLR
17:23 26.0 °C 6.1 °C 1013.4 hPa Calm     28 % 0.0 mm 250.0 W/m2 CLR
17:28 26.0 °C 5.6 °C 1013.4 hPa Calm     27 % 0.0 mm 234.0 W/m2 CLR
17:33 26.0 °C 7.1 °C 1013.4 hPa Calm     30 % 0.0 mm 214.0 W/m2 CLR
17:38 26.1 °C 7.1 °C 1013.4 hPa Calm     30 % 0.0 mm 199.0 W/m2 CLR
17:43 26.1 °C 6.1 °C 1013.4 hPa Calm     28 % 0.0 mm 176.0 W/m2 CLR
17:49 26.0 °C 6.6 °C 1013.4 hPa Calm     29 % 0.0 mm 158.0 W/m2 CLR
Lo Temps de Massalio
Compliments of Weather Underground - 1 mb